| time (UTC) | temp F | wind direction | speed knots | gust knots | rain 1hr in | rain 24hr in | rain mn in | humidity % | barometer mb |
| 20260902120655 | 59 | 211 | 8.7 | 11.3 | 0.00 | 0.00 | 0.00 | 1 | 1009.9 |
| 20260902115652 | 59 | 216 | 9.6 | 15.6 | 0.00 | 0.00 | 0.00 | 1 | 1009.8 |
| 20260902114628 | 59 | 217 | 7.8 | 10.4 | 0.00 | 0.00 | 0.00 | 1 | 1009.7 |
| 20260902113624 | 59 | 209 | 7.0 | 12.2 | 0.00 | 0.00 | 0.00 | 1 | 1009.8 |
| 20260902112628 | 59 | 195 | 6.1 | 12.2 | 0.00 | 0.00 | 0.00 | 1 | 1009.9 |
| 20260902111617 | 59 | 199 | 6.1 | 10.4 | 0.00 | 0.00 | 0.00 | 1 | 1009.8 |
| 20260902110634 | 59 | 213 | 7.0 | 10.4 | 0.00 | 0.00 | 0.00 | 1 | 1009.8 |
| 20260902105621 | 59 | 201 | 5.2 | 9.6 | 0.00 | 0.00 | 0.00 | 1 | 1009.5 |
| 20260902104632 | 59 | 188 | 7.0 | 10.4 | 0.00 | 0.00 | 0.00 | 1 | 1009.2 |
| 20260902103628 | 59 | 221 | 9.6 | 11.3 | 0.00 | 0.00 | 0.00 | 1 | 1009.5 |
| 20260902102624 | 60 | 201 | 5.2 | 7.8 | 0.00 | 0.00 | 0.00 | 1 | 1009.2 |
| 20260902101621 | 60 | 211 | 5.2 | 7.0 | 0.00 | 0.00 | 0.00 | 1 | 1009.0 |
| 20260902100617 | 60 | 205 | 6.1 | 11.3 | 0.00 | 0.00 | 0.00 | 1 | 1009.1 |
| 20260902095634 | 60 | 216 | 6.1 | 8.7 | 0.00 | 0.00 | 0.00 | 1 | 1009.3 |
| 20260902094631 | 61 | 203 | 5.2 | 7.0 | 0.00 | 0.00 | 0.00 | 1 | 1009.4 |
| 20260902093626 | 61 | 205 | 7.0 | 10.4 | 0.00 | 0.00 | 0.00 | 1 | 1009.0 |
| 20260902092622 | 62 | 231 | 5.2 | 7.8 | 0.00 | 0.00 | 0.00 | 1 | 1009.2 |
| 20260902091618 | 62 | 216 | 3.5 | 5.2 | 0.00 | 0.00 | 0.00 | 1 | 1009.1 |
| 20260902090655 | 62 | 212 | 7.8 | 11.3 | 0.00 | 0.00 | 0.00 | 1 | 1009.4 |
| 20260902085651 | 62 | 230 | 7.0 | 8.7 | 0.00 | 0.00 | 0.00 | 1 | 1009.1 |
| 20260902084631 | 62 | 211 | 8.7 | 11.3 | 0.00 | 0.00 | 0.00 | 1 | 1009.2 |
| 20260902083623 | 62 | 210 | 6.1 | 9.6 | 0.00 | 0.00 | 0.00 | 1 | 1009.2 |
| 20260902082619 | 62 | 215 | 7.0 | 8.7 | 0.00 | 0.00 | 0.00 | 1 | 1009.3 |
| 20260902081620 | 63 | 209 | 7.0 | 8.7 | 0.00 | 0.00 | 0.00 | 1 | 1009.0 |
| 20260902080632 | 64 | 214 | 7.0 | 9.6 | 0.00 | 0.00 | 0.00 | 1 | 1008.9 |
| 20260902075629 | 64 | 219 | 5.2 | 7.8 | 0.00 | 0.00 | 0.00 | 1 | 1009.1 |
| 20260902074625 | 64 | 223 | 3.5 | 7.0 | 0.00 | 0.00 | 0.00 | 1 | 1008.8 |
| 20260902073621 | 65 | 211 | 6.1 | 9.6 | 0.00 | 0.00 | 0.00 | 1 | 1008.7 |
| 20260902072617 | 65 | 236 | 4.3 | 7.0 | 0.00 | 0.00 | 0.00 | 1 | 1008.8 |
| 20260902071654 | 65 | 238 | 2.6 | 5.2 | 0.00 | 0.00 | 0.00 | 1 | 1008.7 |
| 20260902070630 | 65 | 230 | 2.6 | 4.3 | 0.00 | 0.00 | 0.00 | 1 | 1008.7 |
| 20260902065627 | 65 | 204 | 5.2 | 8.7 | 0.00 | 0.00 | 0.00 | 1 | 1008.9 |
| 20260902064642 | 65 | 226 | 7.0 | 11.3 | 0.00 | 0.00 | 0.00 | 1 | 1008.6 |
| 20260902063618 | 66 | 211 | 5.2 | 7.0 | 0.00 | 0.00 | 0.00 | 1 | 1008.5 |
| 20260902062635 | 66 | 205 | 6.1 | 9.6 | 0.00 | 0.00 | 0.00 | 1 | 1008.4 |
| 20260902060627 | 67 | 219 | 5.2 | 8.7 | 0.00 | 0.00 | 0.00 | 1 | 1007.8 |
| 20260902055626 | 67 | 214 | 7.0 | 11.3 | 0.00 | 0.00 | 0.00 | 1 | 1007.9 |
| 20260902054620 | 67 | 216 | 7.0 | 10.4 | 0.00 | 0.00 | 0.00 | 1 | 1007.8 |
| 20260902053616 | 67 | 217 | 11.3 | 14.8 | 0.00 | 0.00 | 0.00 | 1 | 1007.7 |
| 20260902052633 | 68 | 215 | 5.2 | 8.7 | 0.00 | 0.00 | 0.00 | 1 | 1007.8 |
| 20260902051629 | 68 | 213 | 7.8 | 11.3 | 0.00 | 0.00 | 0.00 | 1 | 1007.6 |
| 20260902050645 | 68 | 201 | 7.0 | 9.6 | 0.00 | 0.00 | 0.00 | 1 | 1007.5 |
| 20260902045621 | 69 | 217 | 5.2 | 7.8 | 0.00 | 0.00 | 0.00 | 1 | 1007.5 |
| 20260902044617 | 69 | 207 | 5.2 | 7.8 | 0.00 | 0.00 | 0.00 | 1 | 1007.4 |
| 20260902043633 | 69 | 224 | 2.6 | 7.0 | 0.00 | 0.00 | 0.00 | 1 | 1007.4 |
| 20260902042630 | 70 | 213 | 6.1 | 8.7 | 0.00 | 0.00 | 0.00 | 1 | 1007.0 |
| 20260902041626 | 71 | 201 | 7.0 | 9.6 | 0.00 | 0.00 | 0.00 | 1 | 1007.1 |
| 20260902040622 | 71 | 205 | 5.2 | 8.7 | 0.00 | 0.00 | 0.00 | 1 | 1007.1 |
| 20260902035618 | 71 | 215 | 6.1 | 9.6 | 0.00 | 0.00 | 0.00 | 1 | 1006.9 |
| 20260902034634 | 71 | 193 | 6.1 | 7.8 | 0.00 | 0.00 | 0.00 | 1 | 1006.6 |
| 20260902033652 | 72 | 192 | 4.3 | 7.8 | 0.00 | 0.00 | 0.00 | 1 | 1006.6 |
| 20260902032628 | 73 | 183 | 5.2 | 7.0 | 0.00 | 0.00 | 0.00 | 1 | 1006.3 |
| 20260902031623 | 73 | 208 | 5.2 | 7.8 | 0.00 | 0.00 | 0.00 | 1 | 1006.2 |
| 20260902030619 | 74 | 191 | 3.5 | 7.0 | 0.00 | 0.00 | 0.00 | 1 | 1006.1 |
| 20260902025636 | 75 | 181 | 3.5 | 5.2 | 0.00 | 0.00 | 0.00 | 1 | 1006.1 |
| 20260902024712 | 76 | 196 | 2.6 | 5.2 | 0.00 | 0.00 | 0.00 | 1 | 1005.9 |
| 20260902023647 | 77 | 203 | 6.1 | 8.7 | 0.00 | 0.00 | 0.00 | 1 | 1005.7 |
| 20260902022624 | 78 | 190 | 1.7 | 2.6 | 0.00 | 0.00 | 0.00 | 1 | 1005.9 |
| 20260902021621 | 79 | 183 | 1.7 | 3.5 | 0.00 | 0.00 | 0.00 | 1 | 1005.8 |
| 20260902020621 | 80 | 160 | 4.3 | 7.8 | 0.00 | 0.00 | 0.00 | 1 | 1005.8 |
| 20260902015633 | 80 | 98 | 1.7 | 4.3 | 0.00 | 0.00 | 0.00 | 1 | 1005.9 |
| 20260902014629 | 80 | 169 | 1.7 | 3.5 | 0.00 | 0.00 | 0.00 | 1 | 1005.8 |
| 20260902013625 | 80 | 148 | 0.9 | 1.7 | 0.00 | 0.00 | 0.00 | 1 | 1005.9 |
| 20260902012622 | 81 | 174 | 2.6 | 3.5 | 0.00 | 0.00 | 0.00 | 1 | 1005.9 |
| 20260902011617 | 82 | 165 | 2.6 | 3.5 | 0.00 | 0.00 | 0.00 | 1 | 1005.8 |
| 20260902010654 | 82 | 167 | 3.5 | 4.3 | 0.00 | 0.00 | 0.00 | 1 | 1006.0 |
| 20260902005629 | 82 | 154 | 2.6 | 5.2 | 0.00 | 0.00 | 0.00 | 1 | 1006.0 |
| 20260902004626 | 82 | 188 | 3.5 | 5.2 | 0.00 | 0.00 | 0.00 | 1 | 1006.0 |
| 20260902003622 | 82 | 180 | 2.6 | 3.5 | 0.00 | 0.00 | 0.00 | 1 | 1006.2 |
| 20260902002619 | 82 | 189 | 2.6 | 3.5 | 0.00 | 0.00 | 0.00 | 1 | 1006.2 |
| 20260902001635 | 82 | 180 | 3.5 | 4.3 | 0.00 | 0.00 | 0.00 | 1 | 1006.2 |
| 20260902000651 | 83 | 185 | 2.6 | 4.3 | 0.00 | 0.00 | 0.00 | 1 | 1006.3 |
| 20260901235628 | 83 | 33 | 0.9 | 1.7 | 0.00 | 0.00 | 0.00 | 1 | 1006.2 |
| 20260901234624 | 83 | 183 | 2.6 | 5.2 | 0.00 | 0.00 | 0.00 | 1 | 1006.4 |
| 20260901233620 | 83 | 159 | 1.7 | 2.6 | 0.00 | 0.00 | 0.00 | 1 | 1006.3 |
| 20260901232617 | 83 | 202 | 4.3 | 5.2 | 0.00 | 0.00 | 0.00 | 1 | 1006.4 |
| 20260901231632 | 83 | 222 | 2.6 | 4.3 | 0.00 | 0.00 | 0.00 | 1 | 1006.4 |
| 20260901230648 | 83 | 206 | 1.7 | 2.6 | 0.00 | 0.00 | 0.00 | 1 | 1006.6 |
| 20260901225624 | 82 | 231 | 1.7 | 3.5 | 0.00 | 0.00 | 0.00 | 1 | 1006.6 |
| 20260901224620 | 82 | 206 | 2.6 | 3.5 | 0.00 | 0.00 | 0.00 | 1 | 1006.5 |
| 20260901223617 | 81 | 205 | 3.5 | 5.2 | 0.00 | 0.00 | 0.00 | 1 | 1006.8 |
| 20260901222633 | 80 | 210 | 5.2 | 7.8 | 0.00 | 0.00 | 0.00 | 1 | 1006.8 |
| 20260901221629 | 79 | 209 | 4.3 | 7.8 | 0.00 | 0.00 | 0.00 | 1 | 1006.9 |
| 20260901220625 | 79 | 204 | 3.5 | 4.3 | 0.00 | 0.00 | 0.00 | 1 | 1007.0 |
| 20260901215621 | 80 | 185 | 4.3 | 7.8 | 0.00 | 0.00 | 0.00 | 1 | 1006.9 |
| 20260901214617 | 79 | 191 | 3.5 | 4.3 | 0.00 | 0.00 | 0.00 | 1 | 1007.2 |
| 20260901213633 | 79 | 178 | 5.2 | 7.8 | 0.00 | 0.00 | 0.00 | 1 | 1007.3 |
| 20260901212629 | 79 | 193 | 1.7 | 3.5 | 0.00 | 0.00 | 0.00 | 1 | 1007.4 |
| 20260901211625 | 78 | 135 | 0.0 | 0.9 | 0.00 | 0.00 | 0.00 | 1 | 1007.5 |
| 20260901210621 | 77 | 188 | 0.9 | 2.6 | 0.00 | 0.00 | 0.00 | 1 | 1007.7 |
| 20260901205618 | 75 | 193 | 1.7 | 3.5 | 0.00 | 0.00 | 0.00 | 1 | 1007.9 |
| 20260901204634 | 76 | 176 | 4.3 | 5.2 | 0.00 | 0.00 | 0.00 | 1 | 1007.9 |
| 20260901203631 | 75 | 189 | 1.7 | 2.6 | 0.00 | 0.00 | 0.00 | 1 | 1008.0 |
| 20260901202627 | 75 | 182 | 3.5 | 5.2 | 0.00 | 0.00 | 0.00 | 1 | 1008.2 |
| 20260901201623 | 75 | 198 | 5.2 | 8.7 | 0.00 | 0.00 | 0.00 | 1 | 1008.3 |
| 20260901200619 | 76 | 207 | 6.1 | 9.6 | 0.00 | 0.00 | 0.00 | 1 | 1008.4 |
| 20260901195636 | 74 | 204 | 5.2 | 7.8 | 0.00 | 0.00 | 0.00 | 1 | 1008.7 |
| 20260901194632 | 71 | 228 | 3.5 | 5.2 | 0.00 | 0.00 | 0.00 | 1 | 1008.7 |
| 20260901193629 | 72 | 184 | 5.2 | 6.1 | 0.00 | 0.00 | 0.00 | 1 | 1008.9 |
| 20260901192624 | 72 | 184 | 2.6 | 5.2 | 0.00 | 0.00 | 0.00 | 1 | 1009.0 |
| 20260901191621 | 72 | 175 | 2.6 | 4.3 | 0.00 | 0.00 | 0.00 | 1 | 1009.1 |
| 20260901190636 | 72 | 182 | 1.7 | 3.5 | 0.00 | 0.00 | 0.00 | 1 | 1008.8 |
| 20260901185653 | 71 | 172 | 3.5 | 5.2 | 0.00 | 0.00 | 0.00 | 1 | 1008.8 |
| 20260901184630 | 71 | 182 | 2.6 | 3.5 | 0.00 | 0.00 | 0.00 | 1 | 1008.7 |
| 20260901183645 | 70 | 186 | 2.6 | 4.3 | 0.00 | 0.00 | 0.00 | 1 | 1008.9 |
| 20260901182621 | 70 | 206 | 5.2 | 8.7 | 0.00 | 0.00 | 0.00 | 1 | 1009.0 |
| 20260901181617 | 70 | 172 | 6.1 | 8.7 | 0.00 | 0.00 | 0.00 | 1 | 1009.2 |
| 20260901180634 | 70 | 172 | 3.5 | 5.2 | 0.00 | 0.00 | 0.00 | 1 | 1008.9 |
| 20260901175630 | 70 | 205 | 2.6 | 4.3 | 0.00 | 0.00 | 0.00 | 1 | 1009.0 |
| 20260901174626 | 70 | 185 | 4.3 | 5.2 | 0.00 | 0.00 | 0.00 | 1 | 1009.2 |
| 20260901173622 | 71 | 182 | 1.7 | 2.6 | 0.00 | 0.00 | 0.00 | 1 | 1009.2 |
| 20260901172618 | 70 | 112 | 0.9 | 1.7 | 0.00 | 0.00 | 0.00 | 1 | 1009.3 |
| 20260901171634 | 71 | 161 | 1.7 | 2.6 | 0.00 | 0.00 | 0.00 | 1 | 1009.3 |
| 20260901170630 | 71 | 176 | 0.9 | 1.7 | 0.00 | 0.00 | 0.00 | 1 | 1009.1 |
| 20260901165647 | 70 | 0.0 | 0.0 | 0.00 | 0.00 | 0.00 | 1 | 1008.8 | |
| 20260901164703 | 69 | 0.0 | 0.0 | 0.00 | 0.00 | 0.00 | 1 | 1008.9 | |
| 20260901163619 | 69 | 0.0 | 0.0 | 0.00 | 0.00 | 0.00 | 1 | 1009.0 | |
| 20260901162635 | 69 | 48 | 1.7 | 1.7 | 0.00 | 0.00 | 0.00 | 1 | 1008.9 |
| 20260901161651 | 68 | 0.0 | 0.0 | 0.00 | 0.00 | 0.00 | 1 | 1009.0 | |
| 20260901160627 | 68 | 121 | 0.0 | 0.9 | 0.00 | 0.00 | 0.00 | 1 | 1009.1 |
| 20260901155624 | 69 | 0.0 | 1.7 | 0.00 | 0.00 | 0.00 | 1 | 1009.0 | |
| 20260901154619 | 68 | 54 | 0.9 | 1.7 | 0.00 | 0.00 | 0.00 | 1 | 1008.8 |
| 20260901153619 | 68 | 69 | 0.9 | 1.7 | 0.00 | 0.00 | 0.00 | 1 | 1008.8 |
| 20260901152633 | 67 | 52 | 0.9 | 1.7 | 0.00 | 0.00 | 0.00 | 1 | 1008.6 |
| 20260901151629 | 67 | 44 | 0.9 | 1.7 | 0.00 | 0.00 | 0.00 | 1 | 1008.7 |
| 20260901150625 | 66 | 0.0 | 0.0 | 0.00 | 0.00 | 0.00 | 1 | 1008.7 | |
| 20260901145641 | 65 | 0.0 | 0.0 | 0.00 | 0.00 | 0.00 | 1 | 1008.6 | |
| 20260901144618 | 64 | 320 | 1.7 | 1.7 | 0.00 | 0.00 | 0.00 | 1 | 1008.6 |
| 20260901143815 | 64 | 342 | 4.3 | 4.3 | 0.00 | 0.00 | 0.00 | 1 | 1008.5 |
| 20260901142631 | 64 | 262 | 0.0 | 1.7 | 0.00 | 0.00 | 0.00 | 1 | 1008.5 |
| 20260901141627 | 63 | 278 | 0.9 | 1.7 | 0.00 | 0.00 | 0.00 | 1 | 1008.5 |
| 20260901140623 | 63 | 190 | 2.6 | 3.5 | 0.00 | 0.00 | 0.00 | 1 | 1008.3 |
| 20260901135639 | 62 | 155 | 0.9 | 2.6 | 0.00 | 0.00 | 0.00 | 1 | 1008.2 |
| 20260901134636 | 62 | 207 | 2.6 | 3.5 | 0.00 | 0.00 | 0.00 | 1 | 1008.3 |
| 20260901133632 | 62 | 0.0 | 2.6 | 0.00 | 0.00 | 0.00 | 1 | 1008.0 | |
| 20260901132628 | 62 | 214 | 0.9 | 2.6 | 0.00 | 0.00 | 0.00 | 1 | 1008.2 |
| 20260901131625 | 63 | 202 | 1.7 | 2.6 | 0.00 | 0.00 | 0.00 | 1 | 1008.3 |
| 20260901130620 | 63 | 200 | 1.7 | 3.5 | 0.00 | 0.00 | 0.00 | 1 | 1008.3 |
| 20260901125620 | 63 | 10 | 1.7 | 2.6 | 0.00 | 0.00 | 0.00 | 1 | 1008.1 |
| 20260901124633 | 63 | 0.0 | 0.9 | 0.00 | 0.00 | 0.00 | 1 | 1007.9 | |
| 20260901123629 | 64 | 132 | 0.0 | 0.9 | 0.00 | 0.00 | 0.00 | 1 | 1007.7 |
| 20260901122624 | 64 | 270 | 0.9 | 1.7 | 0.00 | 0.00 | 0.00 | 1 | 1008.1 |
| 20260901121641 | 64 | 0.0 | 0.0 | 0.00 | 0.00 | 0.00 | 1 | 1007.9 |